Regional Weather Roundup
Issued by NWS

Home | Current Version | Previous Version | Text Only | Print | Product List | Glossary On
Versions: 1 2 3 4 5 6 7 8 9 10 11 12 13 14 15 16 17 18 19 20 21 22 23 24 25 26 27 28 29 30 31 32 33 34 35 36 37 38 39 40 41 42 43 44 45 46 47 48 49 50
000
ASUS46 KSEW 260410
RWRWA

WASHINGTON REGIONAL WEATHER ROUNDUP
NATIONAL WEATHER SERVICE SEATTLE WA
900 PM PDT SUN JUN 25 2017

NOTE:"FAIR" INDICATES FEW OR NO CLOUDS BELOW 12,000 FEET WITH NO
SIGNIFICANT WEATHER AND/OR OBSTRUCTIONS TO VISIBILITY.

WAZ507-509-555>559-260500-
SEATTLE, TACOMA, EVERETT, AND VICINITY

CITY           SKY/WX    TMP DP  RH WIND       PRES   REMARKS
EVERETT        MOCLDY    71  49  45 N6        29.87S
BOEING FIELD   MOCLDY    85  55  35 CALM      29.82S
RENTON         MOCLDY    80  61  52 NW6       29.81S
SEATAC AIRPORT MOCLDY    83  51  33 NW3       29.84S
JBLM-MCCHORD   MOCLDY    81  59  47 W9        29.85R
PUYALLUP       FAIR      75  59  57 CALM      29.86S
BREMERTON      MOCLDY    78  55  44 SE5       29.87R
JBLM-FT LEWIS  MOCLDY    77  59  52 W12       29.85R
TACOMA NARROWS MOCLDY    77  56  48 W6        29.85S
$$

WAZ001-503-506-510-514-515-260500-
NORTH INTERIOR

CITY           SKY/WX    TMP DP  RH WIND       PRES   REMARKS
BELLINGHAM     MOCLDY    70  57  63 S5        29.82S
FRIDAY HARBOR  MOCLDY    58  52  80 E3        29.83F
EASTSOUND      MOCLDY    72  54  53 S3        29.81F
PORT ANGELES   MOCLDY    63  52  67 W5        29.88R
EDIZ HOOK      FAIR      59  50  72 W23       29.86S
PORT TOWNSEND  FAIR      70  50  49 CALM      29.84S
NAS WHIDBEY    MOCLDY    61  49  64 SW9       29.89R
ARLINGTON      MOCLDY    72  52  49 NW8       29.86R
BURLINGTON     CLEAR     70  54  56 S5        29.84S
$$

WAZ020-022-039-040-504-511-512-260500-
SOUTHWEST INTERIOR

CITY           SKY/WX    TMP DP  RH WIND       PRES   REMARKS
SHELTON        NOT AVBL
OLYMPIA        MOCLDY    75  58  55 SE6       29.86R
CHEHALIS       FAIR      72  57  60 SW7G13    29.88R
KELSO          MOCLDY    64  56  75 VRB7      29.94R
VANCOUVER      PTCLDY    80  59  48 NW7       29.86R
SCAPPOOSE, OR  PTCLDY    76  58  53 NW5       29.86R
PORTLAND, OR   PTCLDY    78  59  51 NW6       29.86R
$$

WAZ021-516-517-260500-
WASHINGTON COAST

CITY           SKY/WX    TMP DP  RH WIND       PRES   REMARKS
FORKS          MOCLDY    60  51  72 VRB3      29.92S
HOQUIAM        CLOUDY    60  58  92 SW15      29.94S FOG
ASTORIA, OR    CLOUDY    57  55  93 S8        29.97R FOG
$$

WAZ019-023-024-040-567>569-260500-
CASCADE MOUNTAINS AND COLUMBIA GORGE

CITY           SKY/WX    TMP DP  RH WIND       PRES   REMARKS
STAMPEDE PASS  MOCLDY    71  49  45 SW5       30.05F
TROUTDALE, OR  MOCLDY    84  59  42 VRB7      29.85R
HOOD RIVER, OR CLOUDY    81  59  47 S5        29.82R
THE DALLES, OR CLOUDY    86  56  35 W3        29.77R
$$

WAZ026-027-041>044-520-521-260500-
EAST SLOPES

CITY           SKY/WX    TMP DP  RH WIND       PRES   REMARKS
OMAK           PTCLDY    83  48  29 W5        29.85F
WENATCHEE      MOCLDY    83  48  29 NE5       29.83F
ELLENSBURG     MOCLDY    78  54  43 CALM      29.87F
YAKIMA         CLOUDY    83  57  41 W5        29.82F
SUNNYSIDE ARPT MOCLDY    76  65  68 CALM      29.80F
YAKIMA TC      NOT AVBL
$$

WAZ028-034-035-260500-
COLUMBIA BASIN

CITY           SKY/WX    TMP DP  RH WIND       PRES   REMARKS
EPHRATA        PTCLDY    81  43  26 CALM      29.83S
MOSES LAKE     PTCLDY    86  50  28 W8        29.83F
PASCO          MOCLDY    80  61  52 N3        29.77F
RICHLAND ARPT  MOCLDY    83  54  36 CALM      29.77F
HERMISTON, OR  MOCLDY    84  55  36 NE6       29.77S
$$

WAZ036>038-260500-
NORTHEAST WASHINGTON

CITY           SKY/WX    TMP DP  RH WIND       PRES   REMARKS
SPOKANE GEIGER PTCLDY    86  42  21 E3        29.93F
SPOKANE FELTS  CLEAR     77  50  38 N5        29.90F
FAIRCHILD AFB  CLEAR     79  48  33 E3        29.93F
COEURDALENE,ID CLEAR     76  54  46 NE6       29.94F
DEER PARK      CLEAR     69  55  60 NE5       29.92F
$$

WAZ029>033-260500-
SOUTHEAST WASHINGTON

CITY           SKY/WX    TMP DP  RH WIND       PRES   REMARKS
PULLMAN        CLEAR     78  53  41 CALM      29.96F
LEWISTON, ID   CLEAR     85  52  32 S5        29.85F
WALLA WALLA    PTCLDY    82  61  48 E10       29.81F
PENDLETON, OR  MOCLDY    82  51  34 E9        29.82F
$$



USA.gov is the U.S. government's official web portal to all federal, state and local government web resources and services.